Wind_Speed
18 17 16 15 14 13 12 12 11 11 10 10 9 9 9 10 10 11 12 12 11 10 10 10 9 8 7 8 8 9 9 9 9 9 8 7 6 7 6 5 6 11 15 15 15 15 15 15 16 15 14 10 7 6 6 6 9 9 7 7 8 9 10 10 9 5 3 6 9 12 14 13 14 17 17 15 14 15 16 14 12 11 9 12 18 25 28 27
16 16 15 14 13 13 12 11 10 9 9 9 9 9 9 9 10 10 11 12 12 11 10 10 10 9 8 7 8 9 8 7 8 9 9 9 8 8 6 5 5 8 12 13 12 13 13 15 16 15 14 11 8 7 6 6 9 8 6 7 8 8 8 9 11 8 2 7 9 11 12 13 15 17 16 15 16 17 14 14 13 12 15 20 23 27 28 27
15 15 14 13 13 12 11 11 10 9 9 9 9 9 9 10 10 10 11 11 11 11 10 11 11 9 8 7 7 8 7 6 8 9 10 11 10 9 7 6 5 7 11 14 14 14 15 16 16 15 15 15 12 11 8 8 8 6 5 6 8 8 7 8 13 9 3 6 7 10 13 15 16 16 15 15 17 17 14 13 13 15 21 25 26 27 28 27
13 13 13 13 12 12 11 11 11 10 10 10 10 10 10 11 11 11 11 11 11 10 10 11 10 9 8 8 7 8 6 6 8 9 11 12 11 10 8 7 7 8 12 16 16 17 19 20 19 17 17 19 16 13 11 9 6 1 3 6 8 7 5 7 12 9 4 4 6 10 13 14 14 16 16 16 19 17 13 11 11 15 22 24 25 27 26 27
13 13 12 12 12 12 12 12 12 12 12 12 12 12 12 12 12 12 12 12 11 10 10 10 10 9 8 8 8 8 6 6 8 9 10 11 11 11 9 8 8 8 12 16 18 19 20 22 22 20 21 21 17 15 13 12 8 5 2 5 6 5 3 6 9 6 5 4 7 9 12 12 12 15 16 15 18 16 13 12 10 12 16 18 22 25 25 25
14 13 13 12 12 12 13 13 14 14 14 14 14 14 13 13 13 13 13 12 12 11 10 10 9 9 8 7 8 8 7 7 7 7 9 11 12 12 11 10 10 9 10 14 18 19 19 21 22 24 23 21 18 17 15 12 7 6 2 3 4 4 5 6 6 3 4 3 6 9 10 11 13 15 15 14 14 15 15 15 13 11 11 13 18 22 22 22
14 14 13 13 13 13 14 14 15 15 15 15 15 15 14 13 13 13 13 12 12 11 10 10 9 8 7 7 8 9 9 10 9 7 8 11 12 12 11 11 12 10 8 12 17 18 19 21 20 23 23 20 19 17 14 11 8 9 5 6 6 5 7 8 4 2 1 4 3 10 10 10 13 14 14 15 14 15 18 17 15 12 11 13 18 21 20 19
14 14 14 13 13 14 14 15 15 15 16 16 15 15 14 13 12 13 13 12 11 10 10 9 8 8 7 6 8 10 10 11 11 9 9 10 12 13 13 13 13 10 9 10 12 16 20 21 20 21 21 18 16 13 10 8 9 11 6 6 8 7 8 8 5 3 2 3 4 8 10 10 11 11 13 15 15 15 17 18 17 15 13 14 19 23 22 20
13 13 13 13 13 13 13 14 14 15 15 15 14 14 13 11 11 12 13 11 10 9 9 8 7 7 6 6 8 9 9 9 11 11 10 10 11 12 13 13 13 11 11 10 12 17 18 18 18 17 17 15 12 11 8 5 9 9 7 8 10 12 12 11 10 7 3 1 2 5 8 10 9 12 16 16 16 14 16 20 19 16 14 16 20 23 23 20
13 13 13 13 14 14 13 13 13 13 13 13 13 12 11 10 10 11 12 11 9 8 8 7 7 6 5 6 7 8 8 6 8 10 10 11 11 10 11 12 13 13 12 11 13 14 13 14 15 16 15 12 12 12 9 9 10 9 9 9 9 11 15 15 15 12 6 1 2 5 7 9 8 13 18 17 16 15 17 19 19 17 14 16 21 24 25 20
14 13 13 14 14 14 14 13 13 11 11 11 10 10 9 10 9 9 10 10 8 7 6 6 6 5 5 5 6 6 7 6 6 8 10 10 11 10 10 11 12 14 14 12 12 10 13 16 17 19 16 13 11 10 10 10 11 12 11 11 11 9 11 15 18 16 11 5 4 6 7 9 10 12 14 15 16 16 16 16 18 18 15 16 21 24 26 21
15 14 14 14 14 14 14 14 13 11 10 9 9 9 9 9 9 8 8 8 7 6 5 5 4 3 3 4 5 6 7 6 6 5 8 9 10 10 11 12 12 14 14 12 12 14 18 20 20 20 16 14 12 9 11 12 13 14 12 12 14 13 10 14 20 19 14 9 7 9 8 8 7 9 13 14 14 16 15 15 19 19 15 18 23 24 26 23
15 15 14 14 14 14 14 13 12 11 10 9 9 9 8 8 7 6 6 6 5 5 5 4 4 3 2 3 4 4 6 5 5 6 6 7 8 10 11 13 13 14 15 12 14 18 22 23 21 20 16 14 14 12 13 14 14 14 12 12 14 15 11 13 20 20 16 12 10 10 8 7 5 8 14 13 13 15 15 16 19 20 17 20 25 25 26 25
16 15 14 13 13 14 14 13 11 11 9 8 8 8 8 7 6 5 4 4 4 3 4 4 3 2 1 2 2 2 3 2 3 5 6 6 8 10 12 14 14 15 16 15 19 23 25 25 22 22 19 16 16 15 15 14 13 13 12 14 14 12 9 10 18 20 18 15 12 11 9 8 8 9 14 14 13 14 14 17 20 21 18 21 26 27 26 25
16 15 14 13 13 13 13 13 11 10 9 8 7 7 7 6 6 5 4 3 3 3 3 3 3 2 2 2 1 1 4 5 4 2 4 6 8 11 13 15 15 16 18 18 21 24 26 26 22 23 23 19 17 16 16 16 15 12 11 13 14 12 8 9 15 18 19 17 15 14 10 10 13 12 14 16 16 14 15 19 21 22 20 18 23 28 27 25
16 16 15 13 13 12 13 12 11 11 9 8 8 7 7 7 6 5 5 4 4 3 3 3 2 3 4 4 3 4 7 8 5 3 2 4 7 11 14 16 16 17 20 21 23 25 27 27 24 24 25 22 19 16 17 18 17 14 11 11 12 13 12 13 16 18 19 18 19 18 12 12 15 16 17 18 18 17 18 21 21 21 20 17 19 24 28 27
15 15 15 14 13 12 12 12 10 10 10 8 8 8 7 7 6 6 6 6 6 5 5 5 4 5 6 5 4 4 8 9 6 3 2 3 5 9 13 16 16 17 20 22 24 26 27 25 23 23 24 24 21 17 16 18 20 17 12 11 11 13 15 16 17 19 21 22 23 22 17 15 14 15 19 21 21 21 22 23 22 20 19 18 18 21 26 27
15 15 15 14 13 11 11 11 10 10 10 9 8 7 7 8 7 7 7 8 7 6 6 6 6 7 6 6 5 3 7 7 6 6 3 3 4 7 10 13 15 16 20 24 25 26 25 23 20 19 22 24 24 22 19 18 20 18 12 11 11 13 17 19 18 18 22 26 27 25 22 19 15 15 18 21 23 24 26 24 22 22 21 19 19 21 24 26
15 15 15 14 14 12 11 11 10 10 10 9 9 6 6 7 7 7 8 9 8 8 8 8 8 9 7 6 5 3 5 4 6 9 5 3 5 8 7 9 12 14 19 24 24 24 23 20 18 19 22 24 26 27 24 18 17 17 13 12 12 12 17 20 18 16 20 25 28 30 29 24 21 18 17 21 23 24 27 27 24 25 24 22 20 21 23 25
16 16 15 14 15 13 11 11 10 10 10 9 9 8 6 6 7 7 7 9 11 10 8 8 8 9 7 5 5 2 3 2 3 8 8 6 6 8 6 8 12 13 16 19 20 22 21 18 19 21 21 21 24 25 24 19 17 18 16 16 16 18 20 20 16 15 17 23 28 32 33 30 26 22 18 20 22 23 28 30 28 27 25 24 21 21 23 24
16 16 16 14 15 13 12 12 11 10 10 9 9 9 7 6 7 7 6 9 12 10 8 7 7 8 7 4 4 2 2 4 3 7 9 8 4 7 8 10 12 12 14 15 15 16 17 19 20 20 18 17 19 19 20 19 17 17 18 19 18 20 23 21 17 14 14 20 28 33 36 34 28 24 20 20 22 24 28 30 30 28 26 24 22 22 23 24
16 17 16 14 14 14 12 11 12 11 11 10 8 8 7 6 6 6 6 8 10 10 8 8 7 7 6 4 3 4 5 6 7 7 6 5 4 6 10 10 8 9 11 14 14 12 13 17 17 16 15 15 15 15 15 15 15 16 17 18 19 20 21 21 18 12 11 20 30 36 39 36 29 25 22 20 22 23 25 26 27 27 26 26 24 22 24 25
17 17 16 14 13 14 12 10 11 11 11 11 10 10 7 6 6 5 5 6 8 8 6 7 7 6 4 3 4 6 7 5 6 5 2 4 7 7 9 8 6 7 8 10 13 13 13 13 11 10 12 13 14 14 15 16 16 17 18 18 21 20 18 21 17 8 8 18 31 40 39 34 30 27 25 21 21 22 23 24 24 24 23 23 23 22 23 26
17 16 16 14 12 14 12 10 10 10 11 12 12 11 5 5 5 5 5 4 5 5 4 6 8 8 4 4 8 10 8 7 6 3 3 7 8 7 8 7 7 8 7 7 8 10 11 8 8 7 9 12 13 14 16 17 18 19 20 21 22 20 18 21 16 11 15 15 24 40 30 29 34 31 30 27 25 26 25 26 27 26 23 21 23 23 23 24
17 16 16 13 11 13 12 10 10 9 10 11 11 8 1 3 4 3 3 1 2 4 6 7 7 7 5 4 9 11 10 8 4 4 6 6 4 4 7 9 9 9 8 8 8 10 9 4 5 8 10 12 14 15 16 17 19 19 20 23 23 20 18 17 13 15 18 9 23 40 21 21 37 35 32 31 31 32 29 28 29 27 26 26 26 26 24 24
17 15 16 14 11 12 12 10 10 10 10 9 10 7 2 3 3 2 2 3 4 5 8 7 5 6 6 4 9 12 9 6 6 5 5 2 3 4 9 11 10 10 8 7 10 12 10 5 6 9 10 11 15 16 14 16 21 21 20 20 21 19 17 16 13 14 12 2 20 37 19 16 34 38 34 33 33 35 32 30 29 27 28 29 29 28 27 27
17 14 15 14 12 12 12 11 10 11 9 7 7 6 3 4 3 4 3 4 5 7 9 9 9 9 7 4 8 10 6 6 9 6 3 2 5 2 6 11 11 10 7 5 7 9 8 7 8 9 12 14 16 18 13 13 20 23 18 17 20 21 18 18 17 18 17 8 13 27 14 8 23 33 34 35 36 35 34 33 32 28 27 29 30 29 29 29
18 15 14 15 13 12 12 11 10 10 7 4 3 2 3 3 4 5 4 3 4 9 10 10 10 7 4 3 6 6 5 6 7 5 2 2 5 4 2 8 12 10 8 6 7 10 11 9 9 9 13 14 13 16 14 13 19 20 17 18 19 21 19 17 17 19 20 14 13 24 16 5 14 28 32 34 38 38 37 37 35 32 29 30 30 30 29 30
18 16 14 14 14 12 12 11 9 7 4 2 1 2 3 5 7 6 5 3 5 9 7 7 6 2 4 5 5 7 6 5 2 1 3 4 3 4 5 3 9 10 9 8 10 13 13 10 9 8 10 10 9 10 12 15 18 15 12 17 18 18 19 18 17 17 15 10 11 23 27 14 10 23 33 36 39 40 39 37 34 31 31 31 31 31 31 30
18 17 15 13 14 13 12 10 8 5 2 0 0 3 5 7 7 4 4 5 7 8 6 5 4 3 3 5 5 7 6 5 3 2 4 3 2 2 4 1 4 6 6 9 12 14 16 13 11 10 8 6 7 9 11 13 16 14 14 17 18 20 21 19 18 17 10 7 9 13 24 20 8 14 29 37 37 35 35 36 35 32 32 33 33 32 33 32
18 17 15 13 13 12 11 9 6 4 1 2 4 6 9 8 5 3 4 7 9 8 7 6 6 5 3 2 3 5 6 7 4 3 4 3 3 4 6 4 2 3 3 4 6 11 16 14 11 11 7 4 6 10 13 13 13 14 15 16 16 16 18 17 15 12 5 5 7 7 9 12 8 10 20 27 28 28 30 30 29 30 31 33 33 33 33 33
18 17 16 13 12 11 10 7 3 0 2 6 9 9 9 8 9 10 5 6 6 6 7 7 6 6 6 4 8 7 7 9 6 5 6 6 5 4 2 2 1 1 2 2 2 6 10 10 9 10 7 6 8 7 9 13 14 11 12 15 10 5 6 8 6 5 5 6 9 7 4 6 9 12 14 18 23 27 33 30 24 24 27 29 32 34 34 34
19 18 16 13 11 9 6 3 1 4 8 10 10 9 9 9 10 13 10 7 6 6 7 5 5 7 8 7 10 7 7 8 5 4 6 6 5 7 6 3 2 2 3 3 4 4 4 3 6 12 7 2 4 2 5 7 12 10 9 13 10 1 1 3 4 2 3 8 12 12 10 8 10 14 15 19 21 21 28 34 29 26 25 25 28 33 35 34
19 16 13 11 10 8 4 4 5 9 11 10 9 11 14 12 8 10 14 14 11 9 6 3 4 5 6 6 8 5 5 8 5 2 3 6 7 6 4 3 3 2 2 2 5 6 3 1 4 7 5 6 3 6 11 10 11 11 8 11 13 8 3 2 3 2 3 7 13 13 7 3 5 11 17 21 20 15 17 25 27 27 27 26 27 31 35 35
17 14 11 10 9 7 7 9 11 12 11 10 12 16 18 14 10 10 12 11 10 10 8 5 3 2 3 6 7 3 4 9 6 5 6 7 12 13 10 8 7 6 4 2 4 5 5 5 2 3 4 5 4 6 11 9 9 10 7 10 13 11 8 5 4 6 5 4 8 11 7 2 4 12 18 21 20 18 15 17 22 25 26 29 32 33 34 35
13 11 9 7 6 7 13 15 13 12 11 14 19 21 20 15 12 9 7 7 8 9 9 8 7 8 6 8 9 4 6 11 10 11 10 7 13 17 13 12 12 10 8 7 5 5 5 8 7 5 4 2 4 4 12 11 2 5 5 7 9 10 11 9 8 9 7 3 6 13 14 12 12 13 16 19 21 22 22 22 25 25 25 27 31 33 34 35
10 10 12 11 10 13 18 17 14 14 16 19 22 20 17 14 12 8 4 3 5 7 9 12 12 11 11 12 12 8 9 10 8 11 9 5 9 15 13 11 11 10 9 7 6 6 9 13 13 10 9 5 1 3 6 10 5 3 8 10 7 12 13 9 5 4 2 1 4 11 15 16 13 11 12 15 18 21 24 28 29 28 27 26 26 30 33 34
11 14 17 18 16 16 14 12 13 17 20 22 23 19 17 16 13 11 5 1 1 4 8 14 13 10 12 15 15 11 10 9 9 10 10 7 9 12 12 10 9 8 6 4 4 5 9 13 15 13 12 9 6 3 3 7 10 9 7 10 7 4 8 5 2 2 1 1 2 7 13 15 15 16 16 13 12 15 19 25 28 29 29 27 25 25 30 33
13 18 20 20 18 13 9 10 12 16 19 19 19 18 17 15 13 13 11 5 5 7 9 12 11 9 11 13 14 15 15 15 11 9 10 10 9 8 8 8 7 6 6 5 5 5 6 9 13 15 13 12 10 5 6 6 6 9 3 11 16 9 7 6 2 2 2 2 2 3 6 9 11 16 19 17 14 14 19 22 26 29 30 29 26 23 28 36
14 18 19 19 18 14 10 10 11 14 16 14 13 13 12 12 10 9 9 8 9 11 12 10 10 10 10 8 10 14 17 16 11 9 11 11 8 6 7 9 6 5 5 4 4 5 4 7 14 20 16 13 12 9 14 19 12 6 10 20 25 17 7 5 5 4 3 3 3 1 4 4 6 12 14 16 17 19 25 28 27 27 28 29 28 24 27 37
17 18 17 16 17 16 12 11 12 13 11 8 9 9 8 8 8 6 6 9 12 13 11 9 11 13 12 7 7 10 14 15 11 12 14 12 10 10 10 11 8 6 6 6 7 7 7 9 15 23 21 19 19 16 17 19 16 12 13 18 21 20 14 5 3 4 6 5 2 2 7 2 15 16 14 13 15 21 26 31 32 30 29 31 30 27 27 35
19 19 16 13 14 15 11 11 13 12 9 7 8 9 8 7 6 6 6 9 10 10 9 9 10 12 14 11 7 7 11 12 11 13 16 15 15 15 12 11 9 9 9 9 8 8 10 11 15 22 24 26 25 22 21 17 8 3 6 13 16 15 16 14 7 9 13 10 8 5 8 2 14 12 15 16 12 20 23 28 32 33 35 33 28 27 27 32
16 16 14 11 11 11 10 13 14 12 10 6 6 9 10 9 6 5 5 7 9 9 7 7 8 10 13 11 7 6 9 10 10 12 16 15 14 14 13 12 13 13 12 10 7 6 10 11 15 21 25 29 23 14 15 12 2 1 2 8 14 12 18 18 9 10 13 7 10 7 6 3 12 14 20 22 14 18 20 23 30 34 37 35 29 27 27 29
12 12 10 10 9 7 9 14 14 13 11 7 8 12 13 12 11 10 6 5 8 9 7 6 6 7 9 8 8 8 8 7 7 7 9 10 9 7 8 12 14 14 13 12 11 10 10 10 14 17 17 21 13 2 5 9 1 5 4 7 13 15 19 15 8 9 7 6 13 9 5 9 16 18 25 26 17 11 10 14 29 33 33 32 29 26 25 26
10 11 10 8 8 7 8 10 10 12 13 11 14 15 15 15 15 15 11 6 6 9 9 6 4 3 6 5 6 8 7 5 3 3 3 4 3 3 5 10 12 10 8 8 12 13 11 11 12 8 3 8 8 4 10 16 16 16 13 11 14 16 17 15 14 13 9 12 18 11 10 16 14 19 27 29 22 12 5 6 19 24 24 28 28 26 26 27
9 10 9 6 5 6 6 5 5 8 9 10 14 14 12 13 13 12 13 9 5 5 6 6 3 2 3 2 2 5 7 4 3 3 3 4 6 7 7 8 9 5 3 5 10 12 9 9 10 8 7 9 14 14 16 19 21 22 21 20 20 17 14 14 16 14 13 20 21 12 13 17 15 24 30 25 22 18 14 10 14 19 23 30 32 32 33 35
7 8 6 3 4 8 8 5 2 6 6 5 8 10 8 8 9 9 11 11 6 3 4 5 5 4 2 1 1 0 3 2 4 4 6 8 8 8 9 8 7 6 6 8 9 8 7 7 7 8 11 13 15 17 16 15 18 21 22 22 22 19 16 15 15 14 16 19 17 13 14 16 17 26 26 20 18 18 20 18 17 18 22 31 36 37 38 40
6 8 7 8 10 10 10 7 4 5 4 2 3 5 4 4 6 7 8 8 7 5 6 6 8 10 9 7 4 2 2 2 2 2 4 8 8 8 8 6 5 6 8 8 8 7 6 7 8 9 12 13 13 14 14 14 15 17 18 20 20 19 19 18 17 16 15 16 19 20 20 18 18 21 20 21 19 10 13 23 25 22 27 34 35 37 39 40
7 8 10 11 11 9 7 5 6 6 6 2 3 3 1 2 3 5 4 5 6 6 6 7 10 11 10 10 7 3 1 1 1 0 3 5 5 7 8 6 5 8 9 9 9 7 5 5 7 10 14 15 15 15 15 14 15 17 17 17 17 18 19 21 21 20 18 20 21 21 19 16 16 16 16 18 19 13 8 11 24 24 28 34 34 37 39 39
9 7 8 8 6 5 4 3 6 6 4 3 1 3 5 5 1 5 3 5 7 5 4 5 7 8 7 9 9 4 1 2 3 2 3 4 4 6 8 7 8 10 11 11 10 9 9 9 9 10 13 14 15 16 16 15 17 18 17 15 14 16 18 21 23 23 22 23 21 19 19 18 13 12 13 15 18 17 17 13 12 22 25 28 31 37 39 38
13 9 7 6 3 2 2 5 5 5 5 4 3 3 5 4 3 7 5 7 7 4 1 2 2 5 7 9 8 6 5 6 6 5 5 7 7 8 8 8 10 11 10 11 11 12 12 11 11 12 13 14 14 13 14 15 19 22 20 15 12 12 14 17 19 20 22 23 22 23 24 21 14 13 15 17 18 16 16 20 16 12 22 24 23 27 34 39
14 11 7 3 0 3 5 6 5 6 6 4 4 2 3 1 6 8 7 6 4 4 3 1 1 1 6 8 6 7 8 6 6 6 5 8 10 10 8 7 8 9 10 10 11 12 12 11 11 11 12 15 14 13 15 16 16 18 15 8 5 7 11 13 15 16 17 18 19 19 20 21 18 18 20 20 19 18 17 19 18 8 11 15 13 13 20 31
Wind_Direction
326 326 327 328 329 329 329 329 330 330 330 330 329 326 322 317 311 304 297 292 287 285 283 280 272 263 253 246 250 253 250 242 234 229 228 228 231 236 225 212 204 192 191 192 195 193 185 186 187 186 178 181 196 172 177 168 118 92 68 44 31 23 28 20 15 32 67 140 152 158 165 171 170 164 155 158 164 158 150 143 156 172 183 190 176 163 161 165
322 320 321 322 323 325 325 326 327 329 330 330 331 331 330 326 319 313 304 296 290 286 284 280 274 267 260 249 245 247 249 243 232 224 221 220 220 229 225 204 198 193 191 186 187 187 180 183 185 182 173 172 186 175 159 129 104 84 64 45 39 31 27 18 13 15 78 154 165 164 167 174 169 165 158 164 173 172 165 154 168 177 172 177 172 166 167 168
317 315 314 315 316 317 317 317 318 319 321 322 323 326 328 326 322 316 309 302 297 290 283 278 273 269 264 254 245 243 242 241 231 218 215 217 213 219 222 205 187 184 186 180 177 175 172 176 179 176 169 169 174 167 148 121 100 67 50 45 46 36 28 18 10 19 127 169 177 165 162 167 167 170 166 171 177 178 181 171 180 184 173 176 174 171 172 171
313 309 307 307 307 307 306 306 307 308 309 310 312 316 318 319 318 316 311 305 300 296 286 276 274 271 264 255 247 240 232 232 229 216 213 214 208 211 214 204 191 182 184 182 176 173 172 172 170 171 169 169 172 164 144 129 134 107 42 43 32 14 22 9 358 24 107 167 168 158 163 167 169 175 173 175 178 177 189 186 190 190 175 175 177 174 176 174
312 306 301 299 299 298 297 296 297 299 301 303 305 308 310 311 311 311 310 305 300 299 290 277 274 270 263 255 246 236 220 213 222 220 212 209 205 204 201 199 196 190 188 185 182 180 179 176 168 167 171 170 167 154 134 121 146 182 53 34 14 342 339 345 345 26 71 136 161 163 170 170 162 170 175 175 177 178 187 184 183 191 180 176 178 178 180 178
313 307 301 296 294 292 291 291 291 293 295 297 300 303 305 306 306 306 308 306 299 295 292 284 276 270 264 254 244 234 213 193 201 212 210 208 203 199 197 195 196 199 195 187 190 188 182 185 178 169 173 172 159 146 138 130 159 215 287 328 334 328 275 306 338 21 39 65 164 168 163 165 161 165 171 169 175 181 181 181 178 186 195 187 182 181 181 179
313 308 303 299 294 292 290 289 289 289 291 293 296 300 301 302 302 303 306 306 300 291 289 287 280 272 265 253 244 233 213 186 180 188 193 201 201 199 196 194 198 199 193 189 196 193 183 190 185 171 172 168 150 142 147 153 192 234 258 258 273 308 265 271 307 254 335 31 133 166 158 162 168 164 165 164 173 180 177 185 188 187 201 197 190 188 183 180
314 310 308 304 300 296 293 291 290 289 290 291 294 296 298 298 298 301 305 304 300 289 283 283 282 273 264 255 243 236 223 196 190 193 184 187 194 198 196 195 200 193 189 191 193 196 189 190 190 177 166 156 147 140 142 161 201 230 268 275 261 274 266 258 257 243 261 43 110 162 163 161 174 172 168 169 170 175 180 189 193 193 202 200 195 192 188 186
317 312 311 310 307 304 300 297 295 293 293 292 293 295 295 295 296 300 303 301 297 287 278 278 278 271 263 254 246 247 239 213 206 208 199 192 188 192 196 194 195 189 189 185 184 196 195 193 195 178 149 144 157 150 148 205 211 220 281 296 270 266 263 253 246 245 251 14 121 168 161 161 178 174 173 178 173 177 189 189 189 196 204 198 194 194 192 191
320 315 312 311 310 308 306 303 301 300 297 295 294 293 294 295 297 300 300 298 294 282 272 272 275 270 258 248 248 253 247 229 215 201 197 208 197 184 191 191 190 189 188 186 189 194 186 184 183 165 151 161 180 174 181 228 225 225 263 268 258 260 261 255 243 238 227 232 212 182 159 160 174 171 176 186 182 185 191 185 185 196 202 196 193 192 193 194
321 318 314 311 309 307 306 304 302 302 300 296 293 291 292 295 298 298 296 294 291 278 261 263 272 267 254 248 247 248 246 245 226 186 175 205 210 194 194 190 186 188 187 189 188 173 166 168 163 163 171 179 191 200 201 223 242 246 252 245 229 230 260 251 228 229 233 219 183 179 166 157 164 172 180 187 184 186 191 186 186 196 200 193 194 193 193 193
319 318 316 313 310 307 304 302 300 298 295 290 287 286 289 292 295 294 290 290 290 275 252 252 263 263 251 244 240 240 244 252 251 216 181 196 209 202 200 192 186 187 187 187 178 159 159 163 162 170 174 174 186 211 208 216 241 241 238 241 222 212 257 254 224 229 234 220 196 190 179 160 161 171 178 185 184 183 191 193 187 192 198 193 195 196 195 195
317 317 317 315 313 310 307 305 302 298 291 285 283 283 284 287 290 287 281 284 283 265 247 244 249 254 244 235 237 240 248 249 248 246 219 199 200 199 196 192 187 183 182 181 169 156 158 166 172 175 174 179 193 212 208 210 229 226 223 231 218 212 248 247 224 229 229 224 226 208 185 166 170 176 181 192 193 186 191 194 188 190 194 192 195 199 198 198
319 319 320 318 316 314 311 309 308 304 297 292 287 282 283 282 283 275 263 268 266 247 239 241 244 246 217 209 222 220 215 192 196 234 233 206 196 196 189 186 187 182 177 175 168 162 166 173 179 179 181 193 206 220 213 203 213 219 217 218 216 223 245 226 217 222 218 218 223 217 213 195 187 185 185 193 203 202 195 190 190 192 190 190 195 200 200 200
323 323 324 322 321 317 314 313 313 310 304 301 294 288 283 278 277 261 241 243 239 227 221 219 226 206 132 130 132 123 115 100 112 167 214 202 190 189 180 176 184 184 172 171 172 170 174 179 184 186 187 197 209 222 220 207 204 213 221 213 215 229 226 206 218 225 224 224 214 212 224 198 188 196 190 187 198 205 196 191 195 196 194 194 195 199 203 202
326 326 326 325 324 321 317 315 317 314 308 306 299 291 282 277 273 250 230 220 207 204 187 168 170 138 100 104 116 110 94 75 76 114 144 179 185 185 177 169 177 184 173 170 175 176 182 187 190 191 189 197 208 216 218 216 210 210 224 215 211 224 216 209 223 235 242 240 220 211 212 195 189 196 192 186 194 198 195 197 201 199 198 201 197 197 202 203
328 326 325 325 324 323 319 316 319 316 311 310 302 293 287 281 270 252 232 210 198 191 171 159 147 125 103 96 105 87 65 54 48 57 101 169 190 187 183 173 168 180 177 171 176 181 187 193 195 196 193 197 204 209 215 222 216 208 215 215 205 212 212 214 221 229 240 241 230 219 214 219 215 199 190 189 195 197 196 203 205 201 202 207 202 195 199 201
329 326 324 324 323 325 320 316 319 317 314 312 305 301 293 281 271 256 233 213 200 184 172 169 152 135 126 105 97 55 41 49 62 59 82 162 175 181 189 183 168 176 179 175 181 184 188 195 198 201 202 202 201 202 209 216 213 203 201 210 210 211 214 220 223 224 233 236 234 227 216 221 228 211 194 190 196 200 199 205 207 202 205 209 204 199 201 201
330 326 325 324 322 324 320 315 317 316 314 310 307 302 283 272 267 251 232 218 198 178 172 173 160 149 154 135 120 88 58 71 86 81 91 129 158 174 190 192 171 174 183 182 187 188 189 194 198 203 208 209 205 204 208 210 208 204 208 227 244 251 237 234 241 250 249 238 233 231 222 216 217 214 201 191 197 202 201 203 205 205 207 210 206 202 206 206
330 325 325 325 321 323 321 314 314 314 313 310 309 301 283 272 263 245 228 216 201 192 187 190 181 170 180 154 129 116 85 96 95 97 89 82 143 175 190 195 172 170 184 184 188 192 195 200 204 208 212 213 211 210 212 212 211 211 219 238 254 265 256 244 252 273 266 242 231 230 225 218 213 212 207 198 197 200 200 201 204 207 208 210 208 204 208 211
330 323 323 325 320 320 319 315 313 313 312 311 309 301 284 270 263 247 221 208 204 207 215 231 223 201 204 159 139 213 143 147 152 107 70 53 122 160 165 184 177 171 178 174 175 188 203 212 213 213 214 217 218 215 217 221 225 225 225 239 253 258 255 247 251 276 271 245 232 221 218 217 211 206 209 209 207 205 204 202 204 207 208 210 211 207 207 210
331 323 322 324 318 316 319 316 313 313 313 311 308 300 282 262 259 248 220 205 210 224 232 241 238 205 195 168 175 208 154 151 155 118 53 51 115 128 138 161 172 163 164 166 172 190 214 224 222 220 218 217 217 212 215 224 236 242 237 249 257 250 254 252 248 263 258 240 231 217 213 213 205 203 213 222 222 215 210 207 206 208 209 210 211 207 205 206
332 324 321 325 320 315 319 317 313 312 311 309 306 302 285 255 252 248 234 216 216 228 224 218 206 167 156 156 153 162 157 152 144 116 47 135 141 131 132 135 144 150 156 171 181 198 223 229 213 214 220 217 216 210 212 225 237 246 246 254 255 246 256 260 244 229 253 251 231 213 206 203 196 201 214 226 230 219 212 212 213 215 216 216 213 209 207 206
334 327 322 328 325 318 320 318 311 307 306 307 308 309 287 232 238 240 244 235 210 201 172 174 173 152 140 146 145 154 147 121 123 124 123 160 160 141 143 149 160 172 186 198 200 209 227 222 185 201 226 223 223 214 213 227 236 243 246 250 252 248 256 265 263 266 299 302 220 198 190 190 192 198 207 213 219 218 213 211 213 219 221 221 218 214 213 211
336 331 325 330 333 324 322 319 310 304 304 305 313 328 342 221 236 223 233 213 159 172 157 154 157 138 121 146 160 158 137 112 127 159 143 168 192 167 176 180 179 186 195 215 237 239 242 237 205 229 238 230 227 220 217 226 238 246 243 243 249 254 262 271 289 288 301 330 189 186 178 192 197 199 205 207 211 213 213 211 214 217 216 216 217 216 215 214
336 334 328 330 340 334 325 322 313 306 305 306 321 343 344 246 224 180 171 116 112 138 146 140 127 118 112 153 175 158 142 141 153 151 138 168 279 222 199 195 190 186 186 219 241 244 253 254 231 237 242 241 236 230 222 220 237 249 240 235 242 251 265 270 287 285 283 345 181 186 179 193 198 199 204 208 212 212 212 214 217 215 211 211 212 214 214 213
335 334 331 328 340 340 329 326 313 308 313 315 328 335 282 233 180 149 129 93 101 131 139 130 115 108 101 125 168 152 137 156 160 169 171 36 355 328 204 203 196 188 194 239 245 228 227 226 230 244 244 245 243 241 233 214 233 247 233 225 240 250 263 270 277 276 264 261 199 193 184 165 193 203 207 210 212 211 212 217 220 218 212 209 209 210 212 212
335 335 332 328 335 340 335 329 316 317 331 330 311 287 243 201 153 142 133 85 104 138 142 137 119 90 68 111 169 156 100 117 159 203 221 15 4 33 138 199 198 198 205 245 249 204 198 216 229 239 240 242 247 248 246 226 231 243 230 224 244 254 261 270 281 286 273 257 210 203 207 173 198 214 214 210 210 212 216 220 222 221 215 211 210 209 210 212
337 334 333 330 331 336 336 333 326 327 339 321 253 198 186 150 132 122 112 96 127 137 136 142 134 70 64 90 129 140 96 80 128 209 32 23 25 65 62 169 202 215 215 241 247 208 204 230 242 243 240 241 251 252 251 240 236 250 244 232 244 254 259 270 282 291 280 247 208 205 208 204 223 224 212 206 210 216 223 226 228 227 219 214 212 211 211 212
337 333 334 330 327 331 334 333 330 332 336 351 110 153 138 128 129 116 92 104 125 129 118 116 124 126 95 66 91 113 92 90 109 28 25 18 358 352 349 354 216 239 236 235 237 220 216 229 247 249 236 239 253 236 235 240 242 257 257 245 250 255 262 273 277 284 287 233 214 200 200 207 237 231 211 209 215 221 226 226 228 229 221 216 214 212 212 211
336 333 333 329 326 328 330 332 330 335 10 127 129 125 119 110 91 61 94 110 106 110 116 98 95 110 64 17 114 105 104 121 108 39 46 32 347 319 296 288 269 283 286 232 237 237 228 234 251 241 227 265 261 232 233 239 241 251 252 250 258 259 262 273 271 266 272 234 214 169 182 214 231 228 221 226 232 232 230 227 227 226 218 214 213 211 211 211
338 334 330 327 328 328 331 338 336 31 124 135 126 117 115 98 53 39 77 129 96 91 118 104 100 101 61 97 130 106 122 131 86 54 71 43 26 51 52 287 277 24 33 46 313 250 231 249 253 215 211 261 260 248 251 243 236 243 246 245 254 266 257 270 276 245 229 252 242 221 246 257 242 239 239 249 253 243 236 234 235 233 221 214 213 210 209 210
340 336 333 331 337 343 348 360 46 117 122 122 115 101 98 91 55 41 60 90 77 82 111 105 113 106 70 102 133 106 104 119 89 68 79 67 82 100 101 121 142 80 60 33 341 294 233 244 206 180 171 260 270 16 8 283 246 237 244 241 238 205 122 243 273 280 252 270 272 272 281 269 248 249 244 246 256 257 245 237 238 243 235 224 218 213 210 210
344 345 345 346 359 17 45 86 95 108 113 107 101 94 85 75 56 55 63 71 79 82 93 116 152 132 80 86 136 148 103 106 112 54 70 98 99 81 57 85 110 46 355 331 347 339 304 209 149 141 87 42 73 75 24 332 249 222 235 243 240 236 210 214 235 220 235 272 280 280 275 204 221 251 247 244 250 259 253 238 238 247 245 236 227 217 214 213
354 358 355 355 12 39 79 96 99 105 103 87 82 84 78 62 48 59 55 58 74 64 64 105 132 124 121 91 102 152 111 111 119 64 67 100 83 57 30 33 42 22 4 339 341 333 295 267 204 107 39 25 88 89 22 342 234 225 254 247 244 239 230 239 263 262 260 287 286 278 276 237 256 266 255 253 254 248 244 238 237 243 244 239 232 222 216 216
7 13 15 21 36 78 94 95 96 100 94 81 75 72 72 65 53 49 34 40 53 36 45 82 72 65 105 107 81 76 112 123 120 81 80 109 87 68 50 46 43 36 44 41 10 348 308 271 241 201 188 84 75 63 30 27 223 239 280 270 253 238 241 258 271 276 268 263 274 275 282 284 284 280 256 249 255 248 243 245 244 244 244 238 232 226 220 218
33 48 63 73 88 102 99 90 87 89 84 78 74 67 63 61 55 46 16 9 33 29 53 67 59 63 82 81 73 86 117 120 107 81 82 112 85 66 58 58 49 40 47 39 20 360 315 284 269 249 214 182 20 338 52 67 76 26 8 349 293 239 243 249 249 289 273 198 251 253 266 282 290 288 262 246 249 246 242 245 248 249 245 239 234 229 224 221
67 74 79 79 88 105 103 82 73 77 78 79 77 67 54 54 60 63 55 352 71 65 67 61 55 65 73 67 71 92 100 86 82 83 83 92 82 65 58 60 56 47 32 358 3 359 320 295 282 268 242 241 285 284 162 118 96 76 38 13 7 262 264 271 228 259 237 184 250 244 258 275 277 277 275 264 251 246 244 241 241 244 244 240 236 228 222 222
84 81 77 73 78 91 89 71 69 69 72 76 73 67 60 57 64 67 63 71 100 86 67 60 63 73 72 63 72 88 81 69 80 88 79 84 82 62 46 51 61 50 16 344 4 6 338 314 286 264 257 278 302 326 338 356 94 134 124 20 23 12 320 322 323 239 235 215 233 264 270 267 275 291 295 291 280 261 254 247 236 233 237 239 237 228 218 216
93 84 74 69 69 76 82 79 70 61 60 56 55 62 63 56 54 59 66 74 83 79 67 68 78 75 69 67 75 83 74 64 66 68 69 78 78 57 36 38 42 24 4 348 358 350 335 328 291 267 257 276 301 322 332 336 337 336 8 20 21 19 357 308 288 282 285 234 174 159 253 270 7 4 339 316 296 268 256 256 248 234 231 234 236 232 219 213
90 81 75 72 67 69 78 77 59 51 51 43 44 51 46 42 42 48 84 94 84 76 74 86 89 71 64 71 77 82 76 61 49 54 61 57 48 43 33 27 19 4 354 331 334 340 337 332 301 286 276 276 293 304 307 321 337 352 23 34 24 23 27 5 295 336 333 290 282 231 233 327 42 30 4 346 309 281 264 256 251 243 235 232 234 233 224 216
86 76 74 75 64 55 63 77 68 56 56 57 60 57 36 24 34 53 96 117 100 88 91 93 86 73 71 73 72 96 93 68 49 56 58 46 42 41 27 16 7 358 355 346 351 350 336 326 303 295 285 277 289 304 301 304 330 11 70 47 27 31 28 7 326 333 340 319 315 289 236 20 44 25 8 17 343 303 281 250 238 238 237 234 234 231 222 218
86 77 74 73 58 48 73 95 86 69 70 79 69 51 32 25 41 66 104 125 102 93 100 84 70 78 81 75 74 107 107 79 65 69 63 53 50 44 28 19 8 352 341 332 331 323 320 320 310 303 287 274 282 308 295 270 241 155 153 37 23 24 11 354 317 320 339 345 354 334 240 345 25 25 23 28 5 316 292 246 226 229 234 235 235 226 215 213
98 90 83 74 61 60 90 98 95 90 94 93 54 36 28 35 50 54 67 110 93 76 80 67 57 85 91 76 76 100 119 110 89 80 68 56 52 43 21 14 5 354 345 331 321 320 319 314 317 321 307 286 283 355 281 252 268 3 335 6 6 1 357 351 336 338 340 353 353 336 262 334 9 26 24 25 20 342 307 236 220 225 230 231 229 220 208 207
118 101 86 81 68 65 82 89 100 107 103 86 63 47 40 48 55 54 60 96 103 76 69 54 31 104 114 89 80 95 120 145 130 87 67 45 21 333 336 358 1 5 16 351 325 325 321 305 308 322 321 291 287 316 321 312 316 318 308 317 334 345 355 353 343 338 331 332 329 310 305 331 8 29 15 18 31 38 57 172 206 215 221 221 216 210 207 205
141 118 96 98 73 52 62 79 108 126 123 98 78 72 71 71 73 72 68 74 85 73 62 47 359 256 162 133 120 95 95 135 210 243 267 289 317 323 325 345 350 350 10 336 323 326 317 301 303 291 260 273 284 296 319 324 316 309 305 305 311 320 335 343 335 324 325 326 311 295 326 336 2 13 359 0 26 50 76 112 172 190 203 209 207 205 207 209
143 130 103 97 67 44 37 34 91 129 144 129 84 88 99 94 95 94 76 62 57 55 48 33 6 341 354 25 289 89 99 142 237 259 265 270 284 297 302 317 327 326 336 333 328 331 312 294 292 281 277 282 289 300 312 310 304 307 309 305 303 304 309 317 318 311 321 323 298 289 329 335 347 1 354 345 4 44 74 97 137 163 184 196 201 204 206 208
95 106 85 73 73 58 34 15 22 66 86 163 132 107 98 84 98 109 92 73 66 72 73 55 34 15 353 342 343 305 240 196 211 249 269 270 273 283 296 317 326 322 338 345 335 330 316 302 290 277 276 280 286 297 300 293 295 305 308 304 298 297 297 297 296 297 306 305 288 293 316 329 340 349 346 339 340 2 61 80 102 140 177 187 190 197 202 205
74 98 97 87 82 77 52 12 348 11 42 97 167 183 271 11 92 115 107 86 68 63 75 68 48 29 357 343 359 18 180 171 150 273 308 296 295 311 322 342 340 324 336 348 346 339 328 315 300 281 273 273 280 288 287 285 294 302 304 302 296 293 288 285 289 294 295 293 291 299 309 315 328 335 331 333 332 310 303 47 78 115 168 186 187 191 198 202
67 88 112 114 104 96 70 347 328 344 16 40 24 238 273 311 100 138 122 84 71 67 101 90 53 39 16 353 356 16 145 250 255 259 307 290 285 311 319 321 315 313 325 337 340 335 328 327 322 305 288 277 278 287 287 282 288 294 296 293 291 292 285 279 286 296 297 294 294 298 298 293 299 320 321 320 321 302 269 280 23 79 127 164 180 188 197 203
61 75 120 153 170 108 14 314 309 316 315 338 356 259 286 330 128 150 136 93 77 58 96 109 46 32 20 3 359 357 328 289 253 240 276 282 276 281 284 290 299 304 314 321 322 322 321 320 318 314 303 290 289 299 297 286 280 280 281 281 281 291 292 286 293 303 303 298 291 287 288 284 278 292 305 305 305 298 273 269 299 35 94 122 143 163 181 196
56 70 105 147 241 39 12 325 297 298 310 350 18 320 301 61 137 150 153 133 81 20 1 326 201 31 4 358 359 346 328 291 241 238 275 285 281 277 269 270 288 298 300 298 298 300 300 300 307 309 299 293 299 308 310 308 294 275 268 263 255 285 301 296 296 305 304 299 295 289 284 278 273 280 292 296 294 290 282 272 276 315 66 81 77 98 145 173
Height
3155 3154 3153 3153 3152 3151 3150 3149 3149 3148 3147 3146 3145 3145 3144 3143 3142 3142 3141 3141 3141 3141 3141 3141 3142 3142 3143 3143 3143 3143 3144 3145 3146 3146 3147 3148 3148 3148 3149 3150 3151 3152 3153 3154 3156 3157 3159 3160 3162 3163 3164 3166 3167 3167 3168 3168 3168 3167 3167 3167 3168 3168 3169 3169 3170 3171 3171 3172 3172 3172 3173 3174 3176 3178 3178 3179 3180 3181 3181 3181 3184 3186 3187 3188 3189 3188 3189 3190
3154 3153 3152 3151 3151 3150 3149 3149 3148 3147 3146 3146 3145 3144 3143 3142 3141 3141 3140 3139 3139 3140 3140 3140 3140 3140 3141 3142 3142 3142 3143 3143 3144 3145 3146 3146 3147 3147 3148 3149 3150 3151 3152 3154 3155 3157 3158 3160 3161 3162 3164 3165 3166 3167 3167 3167 3168 3167 3167 3168 3168 3168 3169 3169 3170 3170 3171 3171 3172 3172 3174 3175 3176 3177 3178 3178 3179 3182 3181 3180 3182 3185 3186 3187 3188 3188 3189 3190
3152 3151 3150 3150 3149 3149 3148 3148 3147 3146 3146 3145 3144 3144 3143 3142 3141 3140 3139 3138 3138 3138 3138 3138 3138 3139 3140 3140 3141 3141 3142 3142 3143 3144 3144 3145 3146 3146 3147 3148 3150 3150 3152 3153 3154 3156 3157 3158 3160 3162 3163 3164 3166 3166 3166 3166 3167 3167 3167 3168 3169 3169 3169 3169 3170 3171 3170 3171 3172 3173 3174 3175 3176 3177 3178 3179 3180 3182 3182 3180 3181 3183 3184 3186 3187 3188 3189 3190
3151 3150 3149 3148 3148 3147 3147 3146 3146 3145 3145 3144 3143 3143 3142 3141 3140 3139 3138 3137 3136 3136 3136 3136 3136 3137 3138 3139 3139 3140 3140 3141 3141 3142 3142 3143 3145 3145 3146 3148 3149 3150 3151 3152 3153 3154 3155 3156 3158 3161 3162 3164 3165 3165 3165 3166 3166 3167 3168 3168 3169 3169 3170 3170 3171 3172 3171 3171 3172 3173 3174 3175 3176 3177 3178 3179 3180 3182 3182 3181 3181 3183 3184 3185 3186 3188 3189 3190
3150 3149 3148 3147 3146 3145 3145 3145 3144 3144 3143 3143 3142 3142 3141 3140 3139 3138 3137 3136 3135 3135 3135 3135 3135 3136 3136 3137 3138 3138 3139 3140 3139 3140 3141 3142 3143 3144 3145 3146 3147 3149 3149 3151 3152 3152 3154 3155 3156 3158 3161 3162 3163 3164 3165 3165 3167 3168 3168 3168 3169 3170 3170 3171 3171 3172 3172 3172 3173 3173 3175 3176 3176 3176 3177 3179 3180 3181 3182 3182 3183 3184 3185 3185 3186 3188 3189 3191
3149 3147 3146 3145 3145 3144 3143 3143 3142 3142 3141 3141 3141 3140 3140 3139 3138 3137 3136 3135 3134 3134 3134 3133 3134 3134 3135 3136 3136 3137 3138 3139 3138 3139 3140 3141 3142 3143 3144 3145 3146 3147 3149 3150 3151 3152 3153 3155 3155 3156 3160 3161 3161 3163 3164 3165 3167 3167 3167 3168 3169 3170 3171 3171 3172 3172 3172 3173 3173 3174 3174 3176 3177 3177 3177 3179 3180 3182 3182 3182 3184 3186 3187 3187 3187 3188 3189 3191
3148 3147 3145 3144 3143 3142 3142 3141 3140 3140 3139 3139 3139 3138 3138 3137 3136 3135 3134 3134 3133 3133 3132 3132 3132 3133 3134 3134 3134 3135 3136 3137 3138 3138 3139 3139 3141 3142 3143 3144 3145 3147 3148 3149 3150 3151 3152 3154 3156 3156 3158 3161 3161 3162 3163 3165 3166 3166 3166 3168 3169 3171 3171 3172 3173 3172 3172 3173 3173 3174 3174 3175 3177 3177 3178 3178 3180 3181 3182 3182 3185 3187 3187 3188 3188 3189 3190 3191
3147 3146 3144 3143 3142 3141 3140 3139 3138 3138 3137 3137 3136 3136 3136 3136 3135 3134 3133 3132 3132 3131 3131 3131 3131 3132 3132 3133 3133 3133 3134 3136 3137 3137 3138 3139 3140 3141 3142 3143 3144 3146 3147 3148 3150 3151 3152 3153 3156 3157 3157 3160 3162 3163 3164 3165 3166 3166 3167 3168 3169 3171 3172 3172 3173 3173 3172 3172 3173 3174 3175 3175 3176 3177 3178 3179 3179 3180 3181 3183 3185 3187 3187 3188 3188 3188 3189 3191
3146 3144 3143 3142 3141 3140 3139 3138 3137 3136 3135 3135 3134 3134 3134 3134 3133 3132 3131 3131 3130 3130 3130 3130 3130 3131 3131 3132 3132 3132 3133 3135 3136 3136 3137 3138 3139 3140 3141 3142 3144 3145 3146 3147 3149 3150 3151 3153 3156 3157 3158 3160 3162 3163 3164 3165 3165 3166 3168 3169 3170 3171 3172 3172 3173 3173 3172 3172 3173 3173 3174 3176 3176 3177 3178 3179 3180 3180 3182 3183 3184 3186 3187 3188 3188 3189 3190 3191
3144 3143 3142 3141 3140 3139 3138 3137 3136 3135 3134 3133 3133 3132 3132 3132 3132 3131 3130 3129 3129 3129 3128 3129 3129 3129 3130 3131 3131 3131 3132 3133 3135 3135 3136 3136 3138 3139 3140 3141 3142 3144 3145 3146 3147 3149 3151 3153 3156 3157 3157 3159 3160 3161 3162 3163 3164 3165 3167 3168 3170 3171 3171 3172 3172 3172 3173 3172 3173 3173 3175 3176 3176 3177 3178 3179 3180 3180 3181 3182 3184 3186 3187 3187 3188 3189 3190 3191
3143 3142 3141 3139 3138 3137 3136 3136 3135 3134 3133 3132 3131 3131 3130 3130 3130 3129 3128 3128 3127 3127 3127 3128 3128 3128 3129 3130 3130 3131 3131 3132 3133 3134 3135 3135 3136 3138 3139 3140 3141 3143 3144 3145 3147 3149 3151 3153 3155 3156 3156 3157 3159 3161 3161 3162 3163 3164 3165 3166 3168 3170 3170 3171 3171 3171 3172 3173 3173 3174 3175 3176 3176 3177 3178 3178 3180 3180 3181 3182 3184 3186 3187 3188 3188 3190 3190 3191
3141 3140 3139 3138 3137 3136 3135 3134 3133 3133 3132 3131 3131 3130 3129 3129 3128 3128 3127 3126 3126 3126 3126 3127 3127 3128 3128 3129 3129 3130 3130 3130 3131 3132 3134 3135 3135 3137 3138 3139 3140 3142 3143 3145 3146 3148 3151 3153 3154 3155 3156 3156 3158 3160 3160 3161 3161 3162 3164 3165 3166 3168 3169 3169 3169 3170 3171 3172 3172 3173 3174 3175 3176 3178 3178 3179 3180 3181 3182 3184 3184 3185 3187 3188 3188 3189 3190 3191
3140 3139 3138 3137 3135 3134 3133 3132 3132 3131 3130 3130 3129 3129 3128 3127 3127 3126 3126 3125 3125 3125 3125 3126 3126 3127 3128 3128 3128 3129 3129 3130 3131 3131 3132 3133 3134 3135 3137 3138 3139 3141 3142 3144 3146 3148 3151 3152 3153 3154 3155 3155 3156 3157 3157 3158 3159 3161 3163 3163 3164 3166 3167 3167 3168 3170 3170 3170 3171 3172 3173 3173 3175 3177 3178 3178 3179 3180 3182 3182 3183 3185 3186 3187 3187 3188 3189 3191
3139 3138 3137 3135 3134 3132 3131 3130 3130 3129 3129 3128 3127 3127 3127 3126 3125 3125 3124 3124 3124 3124 3124 3125 3126 3126 3127 3127 3127 3128 3129 3129 3130 3130 3131 3132 3133 3134 3135 3137 3138 3140 3141 3144 3146 3147 3149 3151 3151 3153 3153 3153 3154 3155 3156 3157 3158 3159 3161 3162 3162 3164 3165 3166 3167 3169 3169 3169 3170 3171 3171 3171 3172 3174 3175 3177 3177 3179 3179 3179 3181 3184 3186 3186 3187 3187 3189 3190
3137 3136 3135 3134 3132 3131 3130 3129 3128 3127 3127 3126 3126 3125 3125 3124 3124 3124 3123 3123 3123 3123 3123 3124 3125 3125 3126 3127 3127 3128 3128 3128 3129 3129 3130 3131 3132 3133 3134 3136 3138 3139 3140 3143 3145 3147 3148 3149 3149 3150 3151 3152 3154 3155 3155 3156 3157 3158 3159 3160 3161 3163 3164 3166 3166 3167 3167 3168 3170 3171 3171 3171 3171 3172 3173 3174 3175 3176 3177 3178 3181 3183 3185 3186 3186 3187 3188 3189
3136 3135 3133 3132 3131 3129 3128 3127 3126 3125 3125 3124 3124 3124 3123 3123 3123 3123 3122 3122 3122 3122 3123 3123 3124 3124 3125 3126 3126 3127 3127 3127 3128 3129 3129 3130 3131 3132 3133 3134 3136 3138 3139 3141 3144 3146 3148 3148 3148 3149 3150 3152 3153 3154 3155 3155 3156 3157 3158 3159 3160 3161 3163 3165 3165 3165 3166 3168 3169 3170 3170 3170 3170 3170 3171 3173 3173 3174 3175 3177 3179 3182 3183 3184 3185 3186 3187 3188
3135 3133 3132 3131 3130 3128 3127 3125 3125 3124 3123 3122 3122 3122 3122 3122 3122 3121 3121 3121 3121 3121 3122 3122 3123 3124 3125 3125 3126 3127 3127 3127 3128 3128 3128 3129 3130 3131 3132 3133 3135 3137 3139 3140 3142 3145 3146 3147 3147 3148 3149 3151 3152 3154 3154 3153 3154 3156 3157 3158 3159 3160 3161 3162 3164 3165 3166 3166 3167 3168 3169 3170 3169 3169 3170 3172 3173 3173 3174 3175 3177 3179 3181 3182 3184 3186 3186 3187
3134 3132 3131 3129 3128 3127 3125 3124 3123 3122 3121 3121 3120 3120 3120 3120 3120 3120 3120 3120 3120 3121 3121 3122 3122 3123 3124 3124 3125 3126 3126 3127 3128 3128 3128 3128 3129 3130 3132 3133 3134 3136 3138 3139 3141 3143 3145 3146 3147 3148 3149 3149 3150 3151 3151 3152 3153 3155 3157 3157 3158 3160 3160 3160 3163 3165 3164 3165 3166 3167 3168 3169 3169 3169 3169 3171 3173 3173 3173 3174 3175 3177 3178 3180 3182 3184 3185 3186
3132 3131 3130 3128 3126 3125 3124 3122 3121 3120 3120 3119 3119 3119 3119 3118 3119 3119 3119 3119 3120 3120 3120 3120 3121 3122 3123 3123 3124 3125 3126 3127 3128 3128 3128 3128 3129 3130 3131 3132 3133 3135 3137 3138 3140 3142 3143 3145 3146 3146 3147 3147 3149 3149 3150 3152 3154 3155 3156 3157 3157 3158 3158 3159 3162 3164 3164 3164 3164 3164 3165 3166 3167 3167 3167 3169 3171 3173 3174 3174 3174 3175 3177 3178 3180 3182 3183 3184
3131 3129 3128 3127 3125 3124 3122 3121 3120 3119 3118 3118 3117 3117 3117 3117 3117 3117 3118 3118 3118 3119 3119 3120 3120 3121 3121 3122 3123 3125 3126 3127 3127 3128 3128 3128 3129 3130 3131 3132 3133 3134 3136 3138 3140 3142 3143 3143 3143 3144 3145 3147 3148 3150 3151 3153 3154 3154 3155 3155 3156 3156 3155 3155 3160 3163 3162 3162 3161 3161 3163 3164 3164 3165 3166 3168 3170 3171 3172 3173 3173 3173 3175 3176 3178 3180 3181 3183
3129 3128 3127 3125 3123 3122 3121 3119 3118 3117 3117 3116 3116 3116 3116 3115 3115 3116 3116 3117 3117 3118 3118 3119 3120 3120 3120 3121 3122 3124 3125 3126 3127 3127 3127 3128 3129 3130 3130 3132 3133 3133 3135 3137 3139 3141 3142 3142 3142 3143 3145 3147 3148 3150 3152 3153 3154 3154 3154 3154 3154 3154 3152 3152 3157 3161 3161 3160 3159 3160 3161 3161 3161 3163 3165 3166 3166 3167 3168 3169 3170 3171 3173 3175 3176 3178 3180 3182
3128 3126 3125 3124 3122 3120 3119 3118 3116 3116 3115 3115 3114 3114 3114 3114 3114 3114 3115 3116 3116 3117 3118 3118 3119 3120 3120 3120 3122 3124 3125 3125 3125 3125 3127 3129 3129 3130 3130 3131 3133 3133 3135 3137 3138 3140 3141 3140 3141 3143 3145 3147 3148 3149 3151 3152 3153 3153 3153 3154 3153 3152 3151 3150 3154 3159 3160 3159 3157 3158 3158 3158 3160 3161 3162 3163 3163 3164 3166 3167 3168 3169 3171 3172 3174 3176 3178 3180
3127 3125 3123 3122 3120 3119 3118 3117 3115 3114 3113 3113 3112 3112 3112 3113 3113 3113 3113 3114 3115 3116 3117 3117 3118 3119 3119 3120 3121 3123 3124 3125 3124 3125 3127 3128 3129 3130 3130 3131 3133 3134 3135 3136 3137 3138 3139 3140 3141 3143 3145 3146 3147 3148 3150 3151 3152 3152 3152 3152 3150 3150 3151 3149 3151 3156 3159 3158 3155 3155 3156 3157 3160 3162 3161 3162 3162 3164 3166 3167 3169 3169 3169 3170 3172 3175 3177 3178
3125 3123 3122 3121 3119 3117 3116 3115 3114 3113 3112 3111 3111 3111 3111 3111 3111 3112 3112 3113 3114 3115 3116 3117 3117 3118 3118 3120 3121 3122 3124 3124 3124 3125 3127 3128 3128 3129 3130 3131 3132 3133 3134 3136 3137 3138 3139 3139 3141 3142 3144 3145 3145 3146 3148 3149 3150 3150 3150 3150 3148 3148 3149 3149 3151 3153 3154 3153 3151 3154 3159 3160 3160 3160 3160 3161 3163 3164 3165 3166 3168 3168 3169 3170 3172 3174 3175 3177
3124 3122 3120 3119 3118 3116 3115 3114 3113 3112 3111 3110 3110 3110 3110 3110 3110 3111 3111 3112 3113 3114 3115 3116 3117 3117 3118 3119 3120 3122 3123 3124 3124 3126 3127 3128 3128 3129 3129 3130 3131 3132 3134 3135 3137 3137 3138 3139 3140 3141 3142 3144 3144 3145 3146 3147 3148 3148 3147 3147 3146 3147 3148 3148 3151 3152 3152 3152 3149 3151 3159 3161 3159 3158 3158 3159 3160 3161 3163 3164 3164 3166 3168 3169 3169 3171 3173 3175
3123 3121 3119 3118 3117 3116 3114 3113 3112 3111 3110 3109 3110 3110 3110 3109 3109 3110 3111 3111 3112 3113 3115 3116 3117 3117 3118 3119 3120 3121 3123 3123 3124 3125 3127 3128 3128 3128 3128 3129 3130 3131 3133 3135 3135 3136 3137 3138 3139 3140 3141 3143 3143 3144 3144 3146 3146 3145 3145 3145 3145 3146 3147 3148 3150 3152 3152 3153 3152 3151 3154 3157 3157 3157 3157 3158 3158 3159 3161 3162 3162 3164 3165 3165 3166 3168 3170 3173
3121 3120 3118 3116 3116 3115 3113 3112 3111 3110 3110 3110 3109 3109 3109 3108 3109 3110 3110 3111 3113 3114 3115 3116 3117 3118 3119 3120 3121 3122 3122 3123 3124 3125 3126 3127 3127 3127 3127 3128 3129 3130 3131 3132 3133 3134 3135 3136 3138 3139 3140 3141 3142 3142 3143 3145 3145 3143 3143 3144 3144 3145 3146 3147 3149 3150 3151 3152 3153 3153 3152 3153 3154 3155 3156 3157 3159 3160 3160 3159 3160 3161 3162 3162 3163 3165 3167 3170
3119 3118 3117 3115 3114 3114 3112 3111 3110 3109 3109 3110 3109 3108 3108 3108 3109 3110 3110 3112 3114 3114 3115 3116 3117 3118 3119 3120 3120 3122 3122 3123 3124 3125 3126 3127 3126 3127 3127 3127 3128 3129 3130 3130 3131 3132 3133 3134 3135 3137 3138 3138 3139 3140 3141 3143 3143 3142 3142 3142 3142 3143 3144 3146 3146 3147 3148 3150 3150 3151 3151 3153 3153 3154 3155 3157 3158 3158 3156 3154 3155 3157 3158 3159 3161 3163 3165 3167
3118 3117 3116 3114 3113 3112 3111 3110 3109 3109 3108 3108 3108 3108 3108 3108 3109 3110 3110 3112 3114 3114 3116 3117 3118 3118 3119 3120 3120 3121 3122 3123 3124 3124 3125 3126 3126 3126 3127 3127 3128 3128 3129 3129 3129 3130 3131 3132 3133 3134 3135 3136 3138 3139 3140 3141 3141 3141 3142 3141 3141 3141 3142 3144 3145 3144 3145 3147 3147 3147 3149 3151 3151 3150 3152 3155 3155 3153 3151 3150 3152 3154 3156 3157 3159 3161 3163 3165
3116 3115 3114 3113 3111 3111 3110 3109 3108 3108 3108 3107 3108 3108 3108 3108 3109 3109 3110 3113 3114 3115 3116 3117 3118 3119 3119 3120 3120 3121 3122 3123 3124 3125 3125 3125 3126 3126 3126 3127 3127 3127 3128 3128 3128 3128 3129 3131 3132 3132 3134 3135 3136 3137 3137 3139 3140 3141 3141 3141 3141 3140 3140 3141 3142 3143 3143 3143 3144 3146 3147 3149 3148 3147 3148 3150 3148 3145 3145 3148 3150 3152 3155 3156 3157 3160 3161 3163
3115 3114 3113 3112 3110 3109 3109 3108 3108 3107 3107 3107 3108 3108 3108 3109 3109 3109 3111 3114 3115 3116 3117 3117 3118 3119 3119 3119 3120 3121 3122 3123 3124 3125 3125 3125 3125 3125 3125 3126 3126 3126 3126 3127 3127 3127 3127 3129 3131 3132 3134 3135 3134 3135 3136 3137 3138 3139 3140 3140 3140 3139 3139 3139 3140 3141 3141 3141 3142 3144 3145 3147 3145 3144 3145 3144 3142 3142 3143 3145 3146 3148 3151 3153 3155 3157 3159 3161
3114 3112 3111 3110 3109 3108 3108 3107 3107 3107 3107 3107 3108 3108 3109 3109 3110 3111 3112 3114 3116 3117 3117 3117 3118 3118 3119 3118 3119 3120 3121 3122 3123 3124 3125 3125 3124 3124 3124 3125 3125 3125 3126 3126 3126 3126 3127 3128 3129 3131 3133 3133 3132 3132 3133 3134 3136 3137 3138 3138 3139 3139 3139 3139 3138 3138 3139 3138 3139 3141 3142 3143 3142 3141 3142 3141 3140 3141 3142 3143 3145 3146 3148 3150 3152 3154 3156 3158
3113 3111 3109 3108 3108 3107 3107 3107 3107 3107 3108 3108 3108 3109 3109 3109 3111 3113 3114 3114 3116 3117 3117 3118 3118 3118 3119 3119 3120 3121 3121 3122 3123 3124 3125 3124 3124 3124 3124 3125 3125 3125 3126 3126 3126 3126 3126 3126 3127 3130 3130 3130 3130 3130 3131 3132 3133 3134 3135 3136 3137 3138 3140 3140 3138 3138 3137 3136 3136 3138 3139 3139 3138 3139 3140 3139 3139 3140 3141 3143 3145 3146 3147 3149 3151 3153 3155 3157
3112 3110 3108 3107 3107 3107 3107 3107 3107 3108 3109 3110 3110 3110 3109 3110 3113 3115 3114 3114 3116 3117 3117 3117 3117 3118 3119 3119 3120 3120 3121 3122 3123 3123 3123 3124 3124 3123 3124 3124 3125 3125 3125 3126 3126 3126 3127 3127 3127 3128 3128 3128 3129 3131 3131 3130 3130 3131 3133 3134 3135 3135 3138 3139 3138 3136 3136 3135 3133 3135 3136 3136 3136 3137 3138 3139 3139 3140 3141 3142 3144 3145 3146 3149 3151 3153 3154 3155
3112 3110 3109 3108 3107 3107 3108 3108 3109 3110 3111 3112 3111 3109 3110 3113 3115 3115 3115 3115 3116 3116 3117 3117 3117 3118 3119 3120 3120 3120 3121 3122 3123 3122 3122 3123 3123 3124 3124 3124 3125 3125 3125 3126 3127 3127 3127 3126 3127 3127 3128 3129 3129 3131 3131 3129 3129 3131 3133 3134 3134 3135 3135 3136 3136 3136 3135 3135 3133 3132 3133 3134 3134 3135 3136 3138 3138 3139 3140 3141 3142 3143 3145 3148 3150 3151 3152 3153
3112 3111 3109 3108 3108 3109 3109 3110 3111 3112 3113 3112 3110 3110 3113 3115 3116 3116 3116 3116 3116 3116 3116 3116 3116 3117 3118 3120 3120 3120 3120 3122 3123 3123 3123 3123 3123 3124 3125 3125 3126 3126 3125 3126 3127 3127 3126 3125 3126 3127 3128 3129 3129 3130 3130 3129 3129 3131 3132 3133 3133 3134 3135 3135 3135 3135 3135 3136 3135 3132 3132 3132 3133 3133 3133 3135 3136 3137 3139 3139 3140 3141 3143 3145 3146 3148 3150 3151
3113 3112 3111 3110 3110 3110 3111 3112 3113 3113 3112 3111 3110 3113 3116 3117 3118 3118 3117 3117 3117 3117 3116 3116 3117 3118 3118 3119 3119 3120 3120 3121 3122 3122 3123 3123 3123 3125 3126 3126 3127 3127 3126 3127 3127 3128 3126 3123 3124 3126 3127 3128 3128 3129 3130 3130 3129 3130 3131 3131 3130 3131 3132 3133 3134 3134 3136 3137 3135 3133 3132 3132 3133 3132 3130 3132 3133 3134 3136 3137 3138 3138 3139 3141 3143 3145 3147 3149
3114 3113 3112 3111 3112 3112 3113 3114 3114 3113 3112 3111 3112 3115 3117 3118 3118 3118 3117 3117 3118 3118 3117 3117 3118 3118 3118 3119 3120 3120 3120 3119 3121 3122 3122 3123 3125 3127 3127 3127 3128 3127 3127 3128 3128 3128 3128 3124 3122 3124 3125 3126 3127 3128 3129 3129 3128 3130 3132 3132 3130 3130 3130 3131 3133 3134 3135 3137 3134 3133 3133 3133 3134 3132 3130 3129 3130 3131 3132 3133 3135 3135 3135 3137 3139 3141 3144 3146
3116 3115 3114 3114 3114 3115 3115 3115 3115 3114 3113 3114 3115 3117 3118 3118 3118 3118 3118 3118 3118 3118 3118 3119 3119 3119 3119 3120 3121 3121 3120 3120 3121 3121 3122 3123 3126 3127 3127 3127 3128 3127 3127 3127 3128 3129 3129 3127 3123 3122 3124 3126 3127 3128 3128 3128 3127 3128 3131 3131 3130 3130 3130 3131 3132 3132 3133 3135 3134 3133 3132 3132 3134 3133 3129 3128 3128 3128 3129 3129 3130 3131 3132 3134 3136 3138 3141 3143
3117 3117 3116 3117 3117 3117 3117 3117 3116 3115 3115 3116 3117 3118 3119 3119 3119 3119 3119 3119 3119 3119 3119 3120 3119 3119 3119 3120 3121 3122 3122 3122 3122 3122 3122 3125 3127 3128 3128 3128 3128 3128 3127 3128 3129 3129 3130 3130 3125 3121 3122 3125 3128 3129 3129 3130 3130 3129 3131 3131 3131 3131 3130 3130 3131 3132 3133 3133 3133 3134 3132 3131 3133 3130 3126 3124 3122 3122 3122 3122 3124 3125 3127 3130 3132 3135 3137 3139
3119 3118 3118 3118 3118 3118 3118 3118 3117 3117 3117 3118 3119 3119 3119 3120 3120 3120 3120 3120 3120 3120 3120 3120 3120 3119 3120 3121 3122 3123 3123 3123 3123 3122 3124 3126 3127 3128 3128 3128 3128 3128 3128 3128 3129 3129 3129 3130 3127 3122 3122 3123 3126 3129 3130 3131 3133 3133 3134 3135 3135 3134 3132 3132 3132 3131 3132 3132 3132 3132 3129 3129 3131 3129 3125 3122 3119 3116 3116 3116 3118 3120 3123 3126 3128 3132 3134 3136
3120 3120 3120 3119 3118 3118 3119 3118 3118 3118 3119 3120 3120 3120 3120 3120 3120 3120 3120 3121 3120 3120 3120 3120 3120 3120 3121 3121 3122 3123 3124 3124 3124 3123 3125 3126 3126 3127 3128 3128 3128 3128 3128 3129 3129 3130 3130 3129 3128 3125 3123 3122 3125 3128 3129 3131 3133 3135 3135 3135 3136 3136 3135 3136 3136 3133 3132 3131 3130 3129 3126 3125 3128 3127 3124 3122 3119 3115 3112 3112 3114 3116 3118 3123 3126 3129 3132 3134
3121 3121 3121 3120 3119 3119 3119 3119 3119 3120 3120 3121 3121 3121 3121 3120 3120 3120 3121 3121 3120 3120 3119 3120 3121 3121 3121 3122 3123 3123 3124 3125 3125 3125 3126 3127 3127 3128 3128 3127 3127 3127 3128 3129 3130 3131 3130 3129 3128 3125 3122 3121 3124 3127 3128 3129 3131 3133 3134 3134 3136 3136 3137 3137 3137 3135 3134 3131 3131 3130 3124 3121 3123 3123 3122 3121 3117 3113 3109 3108 3111 3113 3115 3120 3124 3127 3130 3132
3123 3122 3121 3120 3120 3120 3120 3120 3121 3121 3121 3121 3122 3121 3121 3121 3120 3121 3121 3121 3121 3121 3120 3120 3121 3122 3123 3123 3123 3124 3125 3126 3126 3127 3127 3127 3127 3128 3128 3127 3127 3127 3127 3128 3128 3130 3130 3129 3128 3127 3125 3122 3123 3126 3127 3126 3128 3131 3133 3134 3135 3136 3136 3135 3134 3134 3133 3131 3132 3132 3126 3123 3123 3122 3121 3119 3114 3110 3107 3105 3108 3110 3113 3118 3122 3125 3128 3130
3123 3122 3122 3122 3121 3121 3121 3122 3123 3122 3122 3122 3121 3121 3121 3121 3121 3122 3122 3122 3122 3122 3121 3121 3122 3122 3124 3124 3123 3124 3125 3125 3126 3126 3127 3128 3127 3127 3128 3128 3128 3127 3128 3128 3128 3129 3130 3129 3129 3130 3130 3128 3126 3129 3130 3128 3128 3130 3131 3133 3134 3135 3135 3134 3134 3134 3133 3130 3130 3130 3128 3126 3125 3122 3120 3118 3114 3109 3105 3103 3105 3109 3113 3116 3119 3123 3126 3129
3124 3123 3123 3123 3123 3122 3122 3123 3123 3123 3123 3122 3121 3122 3122 3122 3122 3123 3122 3122 3122 3122 3122 3121 3121 3122 3123 3124 3123 3124 3124 3124 3125 3125 3126 3127 3127 3127 3128 3128 3128 3127 3128 3128 3127 3128 3129 3129 3129 3129 3130 3130 3129 3130 3133 3132 3130 3129 3130 3131 3132 3134 3135 3135 3135 3134 3133 3130 3127 3128 3129 3127 3124 3121 3119 3119 3116 3110 3105 3103 3105 3108 3111 3113 3117 3121 3124 3126
3125 3124 3124 3124 3123 3123 3122 3123 3123 3123 3123 3122 3122 3122 3123 3122 3123 3123 3122 3121 3122 3123 3122 3122 3121 3121 3122 3123 3123 3124 3125 3124 3124 3125 3125 3126 3126 3127 3128 3128 3127 3127 3128 3128 3127 3128 3128 3128 3129 3129 3129 3129 3129 3130 3131 3132 3130 3129 3130 3131 3131 3132 3133 3134 3134 3133 3133 3131 3126 3125 3128 3127 3125 3124 3122 3121 3120 3115 3109 3105 3106 3107 3108 3110 3113 3116 3118 3121
3125 3125 3125 3125 3124 3124 3123 3122 3123 3123 3123 3123 3122 3123 3123 3123 3124 3123 3122 3122 3122 3123 3122 3122 3122 3122 3122 3123 3123 3124 3124 3124 3125 3125 3126 3126 3126 3126 3126 3127 3127 3127 3127 3127 3127 3127 3128 3128 3128 3128 3127 3128 3128 3128 3129 3129 3129 3128 3129 3129 3130 3130 3130 3130 3131 3131 3132 3131 3126 3124 3126 3128 3127 3126 3124 3123 3122 3121 3116 3110 3106 3105 3106 3108 3110 3112 3116 3120
3126 3126 3126 3126 3125 3125 3124 3123 3123 3124 3124 3123 3123 3123 3123 3123 3124 3124 3123 3123 3123 3123 3123 3123 3123 3123 3123 3123 3124 3124 3124 3124 3125 3126 3126 3126 3126 3126 3126 3126 3126 3126 3127 3127 3127 3127 3127 3128 3127 3127 3126 3126 3126 3127 3127 3127 3127 3126 3127 3127 3127 3128 3128 3127 3127 3128 3129 3128 3126 3125 3126 3127 3127 3126 3124 3123 3123 3122 3119 3114 3109 3105 3103 3105 3108 3110 3114 3118
3127 3127 3127 3127 3126 3126 3125 3124 3124 3124 3124 3124 3123 3123 3123 3123 3124 3124 3124 3124 3124 3123 3123 3124 3124 3124 3124 3124 3124 3124 3124 3124 3125 3125 3126 3126 3126 3126 3126 3126 3126 3126 3125 3125 3126 3126 3126 3127 3126 3125 3125 3125 3125 3125 3125 3125 3124 3123 3123 3124 3125 3125 3126 3126 3125 3125 3126 3125 3125 3125 3125 3125 3126 3125 3123 3122 3122 3120 3118 3116 3113 3108 3104 3104 3106 3109 3113 3117
3128 3128 3128 3127 3126 3126 3126 3125 3124 3124 3124 3124 3124 3123 3123 3123 3124 3123 3124 3124 3123 3123 3124 3124 3125 3125 3124 3124 3124 3124 3124 3125 3125 3125 3125 3126 3126 3126 3125 3125 3125 3125 3125 3125 3125 3125 3125 3125 3125 3124 3124 3123 3124 3124 3124 3123 3122 3120 3121 3122 3124 3124 3125 3124 3124 3123 3123 3122 3122 3122 3122 3123 3124 3123 3121 3120 3120 3118 3117 3115 3114 3110 3106 3106 3107 3109 3112 3115
3128 3128 3128 3128 3127 3126 3125 3124 3124 3124 3123 3123 3123 3123 3123 3123 3123 3123 3124 3124 3123 3124 3124 3124 3125 3124 3123 3123 3123 3123 3123 3124 3124 3124 3124 3124 3124 3124 3124 3124 3124 3124 3124 3125 3125 3125 3125 3124 3124 3124 3122 3122 3123 3123 3122 3122 3121 3119 3120 3122 3122 3122 3121 3121 3121 3120 3120 3119 3119 3120 3120 3122 3123 3122 3120 3118 3118 3117 3116 3114 3114 3113 3110 3109 3110 3111 3110 3111